Georgetown, DE

11:54 AM EDT on April 23, 2018 (GMT -0400)
Sussex County

Weather History for KGED - August, 2014

Change the Weather History Date:

Tuesday, August 19, 2014

  Actual Average Record
Temperature  
Mean Temperature 74 °F 76 °F  
Max Temperature 82 °F 85 °F 96 °F (1987)
Min Temperature 66 °F 66 °F 49 °F (1961)
Degree Days  
Heating Degree Days 0 0  
Month to date heating degree days 0 0  
Since 1 June heating degree days 5 13  
Since 1 July heating degree days 0 0  
Cooling Degree Days 9 11  
Month to date cooling degree days 159 217  
Year to date cooling degree days 858 917  
Since 1 June cooling degree days 757 823  
Growing Degree Days 24 (Base 50)    
Moisture  
Dew Point 66 °F    
Average Humidity 76    
Maximum Humidity 93    
Minimum Humidity 58    
Precipitation  
Precipitation T in 0.14 in 5.95 in (1985)
Month to date precipitation 3.94 2.02  
Year to date precipitation 29.92 27.76  
Sea Level Pressure  
Sea Level Pressure 29.87 in    
Wind  
Wind Speed 11 mph (East)    
Max Wind Speed 20 mph    
Max Gust Speed 29 mph    
Visibility 10 miles    
Events      
T = Trace of Precipitation, MM = Missing Value Source: NWS Daily Summary

Daily Weather History Graph

Daily Weather History Graph

Search for Another Location

Airport or City:

Astronomy

Aug. 19, 2014 Rise Set
Actual Time 6:18 AM EDT 7:50 PM EDT
Civil Twilight 5:50 AM EDT 8:18 PM EDT
Nautical Twilight 5:17 AM EDT 8:52 PM EDT
Astronomical Twilight 4:41 AM EDT 9:27 PM EDT
Moon 1:10 AM EDT (8/19) 3:43 PM EDT (8/19)
Length of Visible Light 14h 27m
Length of Day
13h 31m
Waning Crescent, 29% of the Moon is Illuminated
Aug 19
Waning Crescent
Aug 25
New
Sep 2
First Quarter
Sep 8
Full
Sep 15
Last Quarter

Hourly Weather History & Observations

Time (EDT) Temp. Heat Index Dew Point Humidity Pressure Visibility Wind Dir Wind Speed Gust Speed Precip Events Conditions
12:54 AM 72.0 °F - 64.9 °F 78% 29.85 in 10.0 mi East 6.9 mph - N/A   Overcast
1:54 AM 73.0 °F - 66.0 °F 79% 29.83 in 10.0 mi SE 6.9 mph - N/A   Overcast
2:54 AM 73.0 °F - 66.9 °F 81% 29.82 in 10.0 mi SE 4.6 mph - N/A   Overcast
3:54 AM 73.0 °F - 68.0 °F 84% 29.81 in 10.0 mi East 9.2 mph - N/A   Overcast
4:36 AM 72.0 °F - 68.0 °F 87% 29.82 in 10.0 mi East 10.4 mph - N/A   Overcast
4:54 AM 73.0 °F - 68.0 °F 84% 29.82 in 10.0 mi East 10.4 mph - N/A   Overcast
5:17 AM 73.0 °F - 68.0 °F 84% 29.82 in 10.0 mi East 11.5 mph - N/A   Overcast
5:54 AM 73.0 °F - 68.0 °F 84% 29.82 in 10.0 mi East 12.7 mph - N/A   Overcast
6:18 AM 73.0 °F - 68.0 °F 84% 29.83 in 10.0 mi ENE 13.8 mph - N/A   Overcast
6:54 AM 73.0 °F - 68.0 °F 84% 29.84 in 10.0 mi East 11.5 mph - N/A   Overcast
7:54 AM 73.0 °F - 66.9 °F 81% 29.85 in 10.0 mi ESE 16.1 mph 26.5 mph 0.00 in   Overcast
8:15 AM 72.0 °F - 66.9 °F 84% 29.86 in 10.0 mi ESE 13.8 mph 28.8 mph N/A   Overcast
8:54 AM 73.0 °F - 68.0 °F 84% 29.86 in 10.0 mi SE 10.4 mph - N/A   Overcast
9:54 AM 75.9 °F - 66.9 °F 74% 29.87 in 10.0 mi ESE 12.7 mph 19.6 mph N/A   Overcast
10:54 AM 80.1 °F 82.3 °F 66.9 °F 64% 29.88 in 10.0 mi East 13.8 mph 23.0 mph N/A   Scattered Clouds
11:54 AM 80.1 °F 82.3 °F 66.9 °F 64% 29.87 in 10.0 mi ESE 12.7 mph - N/A   Partly Cloudy
12:54 PM 81.0 °F 83.3 °F 66.9 °F 62% 29.88 in 10.0 mi East 12.7 mph 20.7 mph N/A   Clear
1:43 PM 81.0 °F 83.3 °F 66.9 °F 62% 29.89 in 10.0 mi East 15.0 mph 20.7 mph N/A   Overcast
1:54 PM 81.0 °F 83.3 °F 66.9 °F 62% 29.88 in 10.0 mi East 10.4 mph 20.7 mph N/A   Overcast
2:05 PM 81.0 °F 83.0 °F 66.0 °F 60% 29.88 in 10.0 mi East 15.0 mph 20.7 mph N/A   Overcast
2:54 PM 81.0 °F 83.3 °F 66.9 °F 62% 29.88 in 10.0 mi East 15.0 mph 21.9 mph N/A   Mostly Cloudy
3:22 PM 80.1 °F 82.3 °F 66.9 °F 64% 29.88 in 10.0 mi East 15.0 mph 20.7 mph N/A   Mostly Cloudy
3:54 PM 81.0 °F 83.0 °F 66.0 °F 60% 29.88 in 10.0 mi East 15.0 mph 24.2 mph N/A   Scattered Clouds
4:54 PM 80.1 °F 81.7 °F 64.0 °F 58% 29.88 in 10.0 mi East 12.7 mph - N/A   Clear
5:54 PM 79.0 °F - 62.1 °F 56% 29.88 in 10.0 mi East 13.8 mph - N/A   Clear
6:54 PM 77.0 °F - 62.1 °F 60% 29.88 in 10.0 mi East 10.4 mph - N/A   Clear
7:54 PM 73.0 °F - 63.0 °F 71% 29.89 in 10.0 mi East 5.8 mph - N/A   Clear
8:54 PM 70.0 °F - 64.0 °F 81% 29.90 in 10.0 mi East 10.4 mph - N/A   Clear
9:54 PM 71.1 °F - 64.0 °F 78% 29.92 in 10.0 mi East 8.1 mph - N/A   Clear
10:54 PM 68.0 °F - 64.0 °F 87% 29.92 in 10.0 mi Calm Calm - N/A   Clear
11:54 PM 66.9 °F - 64.0 °F 90% 29.93 in 10.0 mi East 8.1 mph - N/A   Clear